SCP
1 1 1 0 0 0 0 0 0 0 0 0 0 0 0 0 1 1 0 0 0 0 0 0 0 0 0 0 0 0 0 0 0 0 0 0 0 0 0 0 0 0 0
1 1 1 1 0 0 0 0 0 0 0 0 0 0 0 0 1 1 0 0 0 0 0 0 0 0 0 0 0 0 0 0 0 0 0 0 0 0 0 0 0 0 0
1 1 1 1 1 1 1 1 0 0 0 0 0 0 0 0 1 0 0 0 0 0 0 0 0 0 0 0 0 0 0 1 1 0 0 0 0 0 0 0 0 0 0
1 1 1 1 1 1 1 1 1 1 0 0 0 0 0 1 0 0 0 0 0 0 0 0 0 0 0 0 0 0 0 1 1 1 0 0 0 0 0 0 0 0 0
2 2 1 1 1 1 1 1 1 1 1 1 0 0 1 1 0 0 0 0 0 0 0 0 0 0 0 0 0 0 0 0 1 1 0 0 0 0 0 0 0 0 0
2 2 1 1 1 1 1 1 1 1 1 1 1 0 1 1 0 0 0 1 1 0 0 0 0 0 0 0 0 0 0 0 0 0 0 0 0 0 0 0 0 0 0
2 2 2 1 1 1 1 1 1 1 1 1 1 1 0 0 0 0 1 1 0 1 1 1 1 0 0 0 0 0 0 0 0 0 0 0 0 0 0 0 0 0 0
2 2 2 2 2 1 1 1 1 1 1 1 1 1 0 0 0 0 1 0 0 1 1 1 1 1 0 0 0 0 0 0 1 0 0 0 0 0 0 0 0 0 0
3 3 2 2 2 2 1 1 2 1 1 1 1 1 0 0 0 0 0 0 1 1 1 1 1 1 1 1 0 0 0 0 1 1 1 1 1 1 1 1 1 1 1
2 2 2 2 2 2 2 2 2 2 1 1 1 1 1 0 0 0 0 0 0 0 1 1 1 1 1 1 1 1 1 1 1 1 1 1 1 1 1 1 1 1 1
2 2 2 2 2 2 2 2 2 2 2 1 2 2 1 1 0 0 0 0 0 0 1 1 1 1 1 1 1 1 1 1 1 1 1 1 1 1 1 1 1 1 1
2 2 2 2 2 2 2 3 3 2 2 2 2 2 1 1 0 0 0 0 0 0 1 1 1 1 1 1 1 1 1 1 0 0 1 1 1 1 0 1 1 1 1
2 2 2 2 2 2 2 3 3 3 3 3 2 2 2 1 1 1 1 1 1 1 1 1 1 1 2 2 1 1 1 0 0 0 0 0 0 0 0 0 0 1 1
2 2 2 2 2 2 2 2 3 3 3 3 3 2 2 1 1 1 1 1 1 1 1 1 1 2 2 2 1 1 1 0 0 0 0 0 0 0 0 0 0 0 0
2 3 3 3 2 2 2 2 3 3 3 3 3 3 2 2 2 2 2 1 1 1 1 1 1 2 2 1 1 1 1 0 0 0 0 0 0 0 0 0 0 0 0
3 3 3 3 3 3 3 3 3 3 3 3 3 3 3 2 2 2 2 1 1 1 1 1 1 2 2 1 1 1 1 1 0 0 0 0 0 0 0 0 0 0 0
3 3 3 3 3 4 3 3 3 3 3 3 3 3 3 2 2 2 2 2 1 1 1 1 1 2 3 2 2 1 1 1 0 0 0 0 0 0 0 0 0 0 0
2 2 2 3 3 3 4 3 3 3 3 3 3 3 3 3 2 2 2 2 1 1 1 1 2 3 4 4 4 3 2 1 1 0 0 0 0 0 0 0 0 0 0
2 2 2 2 2 3 3 3 3 3 3 3 3 3 4 4 3 3 2 2 1 1 1 1 2 4 5 5 4 3 2 1 1 0 0 0 0 0 0 0 0 0 0
2 2 2 2 2 2 2 3 3 3 3 3 4 3 4 4 4 3 2 2 2 2 1 1 2 3 3 3 3 2 2 1 1 1 0 0 0 0 0 0 0 0 0
3 3 3 3 3 2 2 2 3 3 3 3 3 3 3 3 3 3 2 2 1 2 2 2 2 2 2 2 2 1 1 1 1 1 1 1 1 1 1 0 0 0 0
4 4 4 4 3 3 2 2 3 3 4 3 3 3 2 2 2 2 2 1 1 1 1 2 2 1 1 1 2 1 1 1 1 1 1 1 1 1 1 1 0 0 0
5 5 5 5 4 3 2 1 2 4 5 5 4 3 2 2 2 2 1 1 1 1 1 1 1 1 2 2 2 2 1 1 1 1 1 1 1 1 1 1 0 0 0
6 6 6 6 5 4 2 1 1 3 5 6 6 5 4 2 2 1 1 1 1 0 0 0 1 1 1 2 2 2 1 1 1 1 1 1 1 1 1 1 0 0 0
5 5 5 6 6 5 3 1 1 3 5 7 7 6 4 3 1 1 1 0 1 1 1 0 0 1 1 1 1 1 1 1 1 1 1 1 1 1 1 1 0 0 0
5 4 4 5 6 6 4 1 1 3 5 7 8 6 4 3 1 0 0 0 1 1 1 1 0 0 0 1 1 1 1 1 1 1 1 1 1 1 1 1 0 0 0
Wind_Speed
3 3 2 2 3 3 3 2 1 3 2 2 2 4 3 4 7 7 6 10 10 9 9 9 9 9 9 8 8 8 8 8 8 7 8 8 7 7 6 6 6 6 5
4 3 3 1 1 2 2 2 2 2 1 1 2 3 3 4 6 7 7 7 10 9 9 9 9 8 9 8 8 8 8 8 8 7 7 7 7 6 6 6 6 5 5
5 3 2 2 1 2 3 2 2 2 2 2 2 3 3 3 5 6 7 6 6 8 9 9 9 8 9 9 8 8 8 7 8 7 7 7 6 6 5 5 5 5 5
5 3 3 2 2 2 2 2 1 1 1 2 2 1 3 3 4 5 6 6 6 6 8 9 9 8 9 9 9 9 8 8 8 8 7 7 7 6 6 5 5 5 5
5 3 2 2 2 2 2 2 2 1 2 2 3 2 2 2 3 4 5 6 7 7 6 9 10 9 10 10 10 9 9 9 9 9 9 8 7 7 6 6 6 6 6
4 3 3 3 2 1 1 2 3 1 1 1 1 3 2 3 2 2 4 4 5 7 8 8 7 7 10 10 9 10 10 10 10 9 9 9 8 8 8 7 7 7 7
5 3 3 4 2 1 2 3 2 2 1 1 1 1 1 3 3 3 3 3 4 5 7 8 7 5 6 10 10 10 10 11 10 10 10 9 9 8 8 8 8 8 8
5 5 3 3 3 2 2 2 2 1 2 2 1 1 1 1 2 4 3 4 4 4 5 8 6 6 6 5 7 11 11 11 11 11 10 10 9 9 8 8 8 8 8
5 4 5 4 4 4 3 3 3 3 2 1 1 1 1 2 1 1 3 3 3 3 3 4 6 6 6 5 6 10 12 11 11 11 11 10 10 9 9 9 9 9 9
6 5 5 4 3 3 4 5 4 3 2 2 1 1 1 2 1 0 2 2 4 4 3 4 5 5 5 4 6 11 13 12 11 11 11 10 10 10 10 10 10 10 10
6 6 6 5 5 3 4 4 3 2 2 2 2 2 2 2 2 2 2 2 3 3 4 3 3 4 5 5 5 10 14 13 11 10 9 9 10 10 10 11 11 11 11
5 6 6 5 5 3 3 3 3 4 2 2 1 1 1 2 2 2 2 3 3 3 4 4 4 3 4 5 7 12 15 13 12 10 9 9 9 9 10 10 11 12 12
5 6 6 5 4 4 4 4 3 3 4 3 2 2 1 1 1 1 1 1 1 2 3 3 4 4 4 3 4 12 13 13 12 11 10 10 9 9 10 10 10 11 11
5 6 6 6 5 5 5 4 3 4 3 3 4 2 2 2 2 1 1 1 1 1 2 3 3 3 3 4 7 12 8 13 12 12 11 10 10 9 9 9 9 9 9
4 7 7 6 6 5 4 4 3 3 3 3 3 3 3 3 2 1 1 1 1 1 2 2 1 2 3 3 7 6 5 11 13 12 11 11 10 9 9 9 8 8 8
4 5 6 6 5 5 4 4 3 3 3 3 2 2 2 2 2 1 1 1 1 1 2 1 1 1 2 3 6 4 3 8 12 12 11 11 10 10 9 9 9 9 8
4 4 4 5 5 5 5 4 4 3 4 3 3 3 3 2 2 2 1 1 2 1 2 2 1 0 2 1 2 2 2 4 5 10 11 11 11 10 9 9 9 9 8
4 4 4 4 5 5 5 5 5 4 4 4 3 3 2 3 2 2 2 2 2 2 2 2 2 1 1 1 2 3 2 3 2 7 10 11 10 10 10 9 9 8 7
4 4 4 4 4 4 5 5 4 3 3 3 3 3 2 2 2 2 2 2 2 3 1 1 2 1 1 1 1 2 2 2 3 3 7 9 10 10 10 10 9 8 7
4 4 4 3 3 3 3 4 4 3 2 2 2 2 1 1 1 2 2 2 2 2 2 1 2 1 1 1 0 1 1 1 2 3 2 3 7 10 10 8 7 7 7
4 3 3 2 2 2 2 3 3 4 3 2 2 2 2 2 3 2 0 1 1 1 1 1 0 1 1 2 2 2 2 2 2 2 2 1 1 1 3 4 5 5 6
3 4 3 3 2 2 1 2 2 3 3 3 2 2 2 3 4 4 3 3 3 1 1 1 1 1 2 2 2 2 2 3 2 2 3 3 1 1 1 1 3 5 6
4 4 4 4 3 2 3 3 3 2 3 2 2 2 1 2 3 2 2 3 4 4 3 2 2 2 2 3 3 3 2 2 3 3 2 3 2 1 1 2 2 3 5
3 4 4 4 4 3 4 4 4 3 3 3 3 3 3 4 3 2 2 3 3 4 3 2 3 3 3 3 2 2 3 3 2 2 2 2 2 2 2 0 3 3 4
4 4 4 4 5 4 4 3 4 3 4 5 5 5 5 5 5 4 3 3 4 4 6 6 5 4 3 4 4 3 4 4 3 2 3 3 3 3 2 1 1 2 4
5 5 6 5 6 5 6 5 4 3 5 6 6 7 10 8 8 6 4 4 4 3 2 3 2 2 2 3 5 4 3 3 3 2 4 4 3 3 3 2 2 1 2
Wind_Direction
147 141 140 161 178 163 160 171 169 140 144 146 141 120 112 104 118 123 131 146 147 148 150 151 152 153 152 152 152 152 153 152 150 148 147 149 149 148 147 147 144 141 137
133 132 148 173 164 136 128 138 140 130 119 93 92 100 102 105 109 125 138 151 157 159 159 160 164 165 164 165 167 168 165 163 160 160 160 160 158 158 159 159 157 153 149
138 151 154 182 153 123 118 128 133 134 153 147 122 111 106 107 117 132 147 155 163 168 169 170 172 174 176 178 179 179 177 175 170 169 170 170 170 172 172 171 172 173 171
151 162 160 173 146 133 150 138 167 163 142 127 120 121 114 126 139 151 157 166 163 168 178 182 180 182 187 189 191 190 189 186 182 182 183 185 185 185 184 188 188 187 189
164 174 145 128 162 153 160 179 144 148 138 145 155 158 145 153 158 176 164 169 166 165 168 180 184 188 196 199 200 200 198 196 193 195 196 198 200 198 196 200 201 202 205
174 181 153 161 190 166 139 95 115 97 131 191 189 147 154 158 181 170 182 172 171 175 168 168 178 195 203 204 204 206 203 201 201 203 205 207 208 206 205 207 210 212 215
179 201 154 157 180 168 156 151 151 166 205 184 132 149 180 182 182 181 195 174 181 172 159 164 181 184 192 207 208 207 207 205 204 206 209 210 210 209 208 212 216 218 221
181 191 168 176 171 165 153 137 124 151 228 181 163 157 191 223 225 199 181 192 183 171 174 180 180 177 183 177 202 206 209 208 208 209 210 212 212 209 209 214 220 224 226
191 190 173 191 173 178 170 182 178 194 222 195 198 181 169 197 221 230 200 187 171 173 196 181 182 182 190 178 181 201 206 207 210 214 213 212 213 213 214 218 224 227 229
188 187 183 184 188 194 163 194 192 192 202 216 211 208 191 139 154 246 262 191 183 186 210 202 186 185 193 178 174 183 196 202 208 214 216 215 213 215 219 224 230 233 233
195 193 186 187 193 192 178 196 163 199 214 223 218 209 202 184 212 189 219 214 201 192 196 204 191 192 190 179 175 181 188 196 202 209 216 217 217 218 221 226 234 238 239
193 192 188 185 190 190 177 174 169 199 232 264 277 266 186 198 233 224 204 213 203 200 192 190 188 193 191 186 194 177 183 191 198 205 211 216 219 223 227 231 237 242 244
188 191 189 182 190 188 181 178 182 205 206 223 244 272 279 257 253 276 260 242 215 197 187 188 191 191 201 165 162 166 182 189 197 203 209 215 221 226 230 235 240 246 249
183 181 178 182 193 192 192 178 185 201 198 206 230 241 287 282 274 270 276 292 278 258 218 209 183 184 185 155 166 172 183 193 199 204 210 215 221 226 231 236 240 246 251
185 173 173 182 191 191 187 174 204 206 179 195 229 223 236 266 263 270 286 275 254 266 265 237 192 181 159 142 157 183 184 194 200 205 210 215 220 224 229 233 237 242 246
180 166 171 181 184 182 184 186 206 194 180 198 226 223 214 272 283 260 254 282 283 251 263 271 239 186 150 166 169 188 200 188 204 207 210 213 216 221 226 230 233 237 240
167 173 181 183 181 183 186 194 217 194 189 206 220 211 207 250 300 312 297 269 267 268 262 273 268 133 131 129 145 218 204 188 201 207 209 209 213 217 222 228 232 235 238
171 177 185 190 189 186 185 193 213 205 192 206 217 226 218 225 230 275 305 305 290 271 255 274 294 328 177 203 198 223 236 231 215 203 206 209 212 217 222 226 230 233 236
167 173 179 188 193 188 189 194 201 213 200 199 201 207 209 234 231 246 261 286 305 298 284 258 272 270 245 258 215 242 253 269 271 230 208 209 216 222 227 227 225 225 228
165 174 177 181 187 189 189 187 189 205 209 198 184 170 159 192 228 245 256 262 272 286 296 288 284 292 298 285 250 262 290 299 298 301 269 212 214 223 230 228 224 220 222
168 160 156 162 176 182 185 175 181 188 186 176 154 141 143 108 79 68 335 324 296 289 276 273 302 344 344 359 1 342 330 320 298 333 327 299 218 217 218 217 211 213 217
160 152 153 157 163 188 168 151 173 175 158 163 160 144 129 107 103 103 92 67 59 47 10 43 29 25 7 5 3 351 347 336 319 350 353 319 336 306 238 149 176 197 211
162 160 154 145 133 85 94 123 146 147 131 135 142 140 145 100 105 112 110 95 67 57 71 79 56 28 15 8 359 345 340 327 300 307 317 302 331 336 4 97 149 182 199
122 122 121 122 114 94 104 120 126 131 111 96 91 94 96 63 47 46 80 84 76 60 61 87 78 61 50 16 353 329 307 297 281 341 353 315 334 335 348 331 207 209 215
118 112 108 102 93 78 76 106 128 130 112 96 81 68 74 72 44 42 74 86 81 75 74 84 91 88 62 30 16 9 1 351 341 19 4 341 338 332 321 305 240 230 247
113 101 86 80 82 73 64 76 114 120 111 101 85 69 62 63 49 47 64 78 76 51 54 75 73 55 56 42 37 34 19 0 348 356 18 360 345 347 327 334 349 311 278